Location: Star Hoppers Observatory
(42.7905°N, 83.6127°W)
Time: 12:45:07
(UTC-04:00)

Amateur Radio Satellites - All Passes

Search period start: 21 October 2014 12:15
Search period end: 22 October 2014 12:15
Location: Star Hoppers Observatory, 42.7905°N, 83.6127°W

Satellite Date Start Highest point End Downlink Frequencies (MHz)
Time Altitude Azimuth
HO-68 21 Oct 12:24:59 12:30:39 26° 303° (WNW) 12:36:18 435.675 MHz FM
Sapphire 21 Oct 12:49:11 12:52:02 14° 36° (NE) 12:54:52 437.095 MHz 1200 baud AX-25 AFSK
ZACube-1 21 Oct 12:51:37 12:55:16 27° 292° (WNW) 12:58:50 437.345 MHz
Oscar 19 21 Oct 13:02:00 13:05:37 20° 62° (ENE) 13:09:14 437.125 CW, 437.150 USB
PCSat 21 Oct 13:11:33 13:15:33 20° 42° (NE) 13:19:31 145.825 MHz
AO-27 21 Oct 13:12:48 13:13:57 11° 56° (NE) 13:15:06 436.795 MHz FM
JAS-1B 21 Oct 13:16:01 13:20:38 24° 63° (ENE) 13:25:04 435.800 - 435.900 CW/SSB
Oscar 16 21 Oct 13:45:26 13:50:22 48° 70° (ENE) 13:55:19 437.025 USB, Beacon 2401.1428
KITSAT 1 21 Oct 13:46:48 13:54:47 68° 116° (ESE) 14:02:48 435.175 FM
Uribyol 2 21 Oct 13:58:40 14:03:05 29° 65° (ENE) 14:07:32 436.500 FM
ISS 21 Oct 14:02:15 14:04:14 15° 132° (SE) 14:06:13 145.800 FM
Gurwin Techsat 1B 21 Oct 14:02:31 14:05:41 16° 60° (ENE) 14:08:52 435.225 FM
ITAMSAT 1 21 Oct 14:03:38 14:08:06 30° 66° (ENE) 14:12:36 435.822 SSB
AO-Echo 21 Oct 14:11:41 14:16:12 41° 69° (ENE) 14:20:53 ?
TMSAT-1 21 Oct 14:16:19 14:19:27 16° 60° (ENE) 14:22:36 436.925 FM
SO-50 21 Oct 14:28:42 14:32:59 47° 118° (ESE) 14:37:25 436.795 FM
Sapphire 21 Oct 14:31:06 14:36:32 66° 57° (ENE) 14:41:55 437.095 MHz 1200 baud AX-25 AFSK
Oscar 19 21 Oct 14:39:27 14:44:31 57° 259° (W) 14:49:36 437.125 CW, 437.150 USB
AO-7 21 Oct 14:43:44 14:48:42 18° 47° (NE) 14:53:40 29.400 - 29.500 MHz
AO-27 21 Oct 14:47:21 14:52:32 74° 74° (ENE) 14:57:46 436.795 MHz FM
PCSat 21 Oct 14:54:08 14:59:34 77° 242° (WSW) 15:04:58 145.825 MHz
JAS-1B 21 Oct 15:05:09 15:11:05 49° 260° (W) 15:16:36 435.800 - 435.900 CW/SSB
Oscar 16 21 Oct 15:26:01 15:29:57 22° 267° (W) 15:33:54 437.025 USB, Beacon 2401.1428
ISS 21 Oct 15:37:14 15:40:34 72° 328° (NNW) 15:43:54 145.800 FM
Uribyol 2 21 Oct 15:37:35 15:42:24 38° 262° (W) 15:47:17 436.500 FM
Gurwin Techsat 1B 21 Oct 15:39:44 15:45:02 74° 257° (WSW) 15:50:22 435.225 FM
Oscar 10/S400 21 Oct 15:39:59 15:57:15 43° 157° (SSE) 16:27:43 145.825 - 145.975 CW/USB, Beacon 145.810 USB
ITAMSAT 1 21 Oct 15:42:42 15:47:28 36° 263° (W) 15:52:17 435.822 SSB
KITSAT 1 21 Oct 15:43:37 15:50:47 34° 318° (NW) 15:58:01 435.175 FM
AO-Echo 21 Oct 15:51:18 15:55:08 23° 267° (W) 15:59:05 ?
TMSAT-1 21 Oct 15:53:27 15:58:44 75° 257° (WSW) 16:04:04 436.925 FM
Uosat F 21 Oct 15:54:32 15:58:02 19° 62° (ENE) 16:01:33 435.120 FM
SO-50 21 Oct 16:10:02 16:13:46 25° 317° (NW) 16:17:37 436.795 FM
UOSAT-12 21 Oct 16:12:42 16:17:09 49° 118° (ESE) 16:21:41 437.025 FM, 437.400 FM
Sapphire 21 Oct 16:15:49 16:19:23 18° 255° (WSW) 16:22:57 437.095 MHz 1200 baud AX-25 AFSK
AO-27 21 Oct 16:29:56 16:32:36 14° 271° (W) 16:35:16 436.795 MHz FM
Saudisat 1A 21 Oct 16:30:04 16:32:40 15° 37° (NE) 16:35:15 436.775 MHz
AO-7 21 Oct 16:31:52 16:40:04 71° 68° (ENE) 16:48:18 29.400 - 29.500 MHz
ISS 21 Oct 17:15:03 17:17:42 21° 347° (NNW) 17:20:22 145.800 FM
JAS-2 21 Oct 17:18:29 17:23:34 31° 62° (ENE) 17:29:13 435.800 - 435.900 CW/SSB, 435.910 FM
Uosat F 21 Oct 17:31:28 17:36:23 56° 259° (W) 17:41:21 435.120 FM
KITSAT 1 21 Oct 17:45:07 17:49:10 14° 346° (NNW) 17:53:14 435.175 FM
AO-40 21 Oct 17:45:36 23:58:48 39° 184° (S) 05:39:49 Beacon 2401.320
UOSAT-12 21 Oct 17:53:39 17:57:32 25° 317° (NW) 18:01:28 437.025 FM, 437.400 FM
Hamsat 21 Oct 17:54:49 17:58:34 32° 70° (ENE) 18:02:18 145.90 MHz
Saudisat 1A 21 Oct 18:08:26 18:12:52 89° 51° (NE) 18:17:18 436.775 MHz
AO-7 21 Oct 18:26:53 18:33:29 26° 266° (W) 18:40:08 29.400 - 29.500 MHz
ISS 21 Oct 18:52:47 18:55:16 19° 8° (N) 18:57:44 145.800 FM
OPAL 21 Oct 18:59:12 19:04:13 82° 106° (ESE) 19:09:09 ?
STRAND 1 21 Oct 19:01:57 19:03:03 11° 88° (E) 19:04:08 ?
JAS-2 21 Oct 19:02:57 19:08:24 44° 264° (W) 19:14:35 435.800 - 435.900 CW/SSB, 435.910 FM
HO-68 21 Oct 19:23:52 19:26:10 12° 47° (NE) 19:28:28 435.675 MHz FM
Hamsat 21 Oct 19:31:13 19:34:33 22° 266° (W) 19:37:53 145.90 MHz
KITSAT 1 21 Oct 19:44:11 19:48:43 16° 18° (NNE) 19:53:14 435.175 FM
SO-67 21 Oct 20:04:24 20:07:48 61° 260° (W) 20:11:13 435.3500 MHz FM
ISS 21 Oct 20:29:19 20:32:34 46° 27° (NNE) 20:35:48 145.800 FM
STRAND 1 21 Oct 20:37:44 20:42:56 89° 105° (ESE) 20:48:05 ?
OPAL 21 Oct 20:39:55 20:42:25 14° 304° (WNW) 20:44:54 ?
HO-68 21 Oct 21:05:25 21:12:20 56° 67° (ENE) 21:19:19 435.675 MHz FM
SO-50 21 Oct 21:20:26 21:22:24 12° 32° (NNE) 21:24:23 436.795 FM
RS-15 21 Oct 21:23:37 21:26:22 11° 94° (E) 21:29:06 29.354 - 29.394 USB, Beacon 29.352 USB
Oscar 11 21 Oct 21:33:25 21:36:49 23° 67° (ENE) 21:40:12 145.825 FM, Beacon 2401.500 USB
KITSAT 1 21 Oct 21:39:14 21:46:46 40° 45° (NE) 21:54:14 435.175 FM
ISS 21 Oct 22:06:19 22:09:06 25° 224° (SW) 22:11:53 145.800 FM
ZACube-1 21 Oct 22:12:18 22:16:09 27° 68° (ENE) 22:19:58 437.345 MHz
STRAND 1 21 Oct 22:19:04 22:21:22 13° 302° (WNW) 22:23:39 ?
UKube-1 21 Oct 22:23:35 22:27:56 90° 256° (WSW) 22:32:19 145.840 MHz, 145.915 MHz
HO-68 21 Oct 22:54:17 23:00:21 29° 265° (W) 23:06:29 435.675 MHz FM
FUNcube-1 21 Oct 22:57:00 23:01:36 76° 75° (ENE) 23:06:10 145.950 - 145.970 MHz USB
SO-50 21 Oct 22:59:15 23:04:01 56° 52° (NE) 23:08:49 436.795 FM
UOSAT-12 21 Oct 23:03:13 23:04:54 12° 31° (NNE) 23:06:34 437.025 FM, 437.400 FM
Oscar 11 21 Oct 23:08:52 23:12:49 34° 263° (W) 23:16:46 145.825 FM, Beacon 2401.500 USB
RS-15 21 Oct 23:25:29 23:36:12 61° 115° (ESE) 23:46:51 29.354 - 29.394 USB, Beacon 29.352 USB
KITSAT 1 21 Oct 23:34:37 23:42:26 55° 246° (WSW) 23:50:13 435.175 FM
ZACube-1 21 Oct 23:48:17 23:52:25 32° 264° (W) 23:56:32 437.345 MHz
FUNcube-1 22 Oct 00:37:07 00:38:28 11° 271° (W) 00:39:49 145.950 - 145.970 MHz USB
SO-50 22 Oct 00:40:42 00:44:12 20° 249° (WSW) 00:47:43 436.795 FM
UOSAT-12 22 Oct 00:41:29 00:46:08 53° 52° (NE) 00:50:42 437.025 FM, 437.400 FM
MaSat-1 22 Oct 01:07:59 01:12:07 50° 113° (ESE) 01:15:53 437.345 MHz
RS-15 22 Oct 01:38:38 01:48:59 45° 319° (NW) 01:59:25 29.354 - 29.394 USB, Beacon 29.352 USB
Oscar 16 22 Oct 01:57:39 02:00:38 15° 90° (E) 02:03:36 437.025 USB, Beacon 2401.1428
AO-Echo 22 Oct 02:19:26 02:22:01 14° 89° (E) 02:24:36 ?
UOSAT-12 22 Oct 02:22:32 02:25:53 20° 249° (WSW) 02:29:12 437.025 FM, 437.400 FM
MaSat-1 22 Oct 02:45:23 02:48:02 17° 307° (NW) 02:50:33 437.345 MHz
JAS-1B 22 Oct 02:46:06 02:52:14 41° 99° (E) 02:59:25 435.800 - 435.900 CW/SSB
Oscar 19 22 Oct 02:50:12 02:55:09 47° 99° (E) 03:00:04 437.125 CW, 437.150 USB
AO-27 22 Oct 03:00:14 03:04:30 25° 94° (E) 03:08:44 436.795 MHz FM
Oscar 16 22 Oct 03:35:22 03:40:27 66° 287° (WNW) 03:45:30 437.025 USB, Beacon 2401.1428
Uribyol 2 22 Oct 03:49:00 03:54:14 73° 103° (ESE) 03:59:25 436.500 FM
ITAMSAT 1 22 Oct 03:54:11 03:59:26 76° 103° (ESE) 04:04:39 435.822 SSB
Gurwin Techsat 1B 22 Oct 03:55:17 04:00:20 42° 98° (E) 04:05:20 435.225 FM
AO-Echo 22 Oct 03:56:02 04:01:21 79° 285° (WNW) 04:06:39 ?
RS-15 22 Oct 03:56:53 04:05:09 23° 352° (N) 04:13:33 29.354 - 29.394 USB, Beacon 29.352 USB
PCSat 22 Oct 03:57:29 03:59:12 11° 102° (ESE) 04:00:54 145.825 MHz
TMSAT-1 22 Oct 04:08:39 04:13:40 41° 98° (E) 04:18:39 436.925 FM
Oscar 19 22 Oct 04:30:15 04:34:11 23° 296° (WNW) 04:38:06 437.125 CW, 437.150 USB
AO-7 22 Oct 04:33:47 04:39:43 21° 91° (E) 04:45:36 29.400 - 29.500 MHz
JAS-1B 22 Oct 04:37:02 04:42:49 38° 293° (WNW) 04:49:32 435.800 - 435.900 CW/SSB
OPAL 22 Oct 04:37:41 04:41:34 22° 61° (ENE) 04:45:26 ?
AO-27 22 Oct 04:39:14 04:44:10 43° 291° (WNW) 04:49:04 436.795 MHz FM
Sapphire 22 Oct 05:13:39 05:18:51 52° 114° (ESE) 05:24:07 437.095 MHz 1200 baud AX-25 AFSK
Uribyol 2 22 Oct 05:29:59 05:33:06 16° 300° (WNW) 05:36:12 436.500 FM
ITAMSAT 1 22 Oct 05:35:17 05:38:17 16° 301° (WNW) 05:41:17 435.822 SSB
Gurwin Techsat 1B 22 Oct 05:35:41 05:40:05 27° 295° (WNW) 05:44:27 435.225 FM
PCSat 22 Oct 05:36:19 05:41:44 86° 119° (ESE) 05:47:11 145.825 MHz
AO-Echo 22 Oct 05:37:23 05:39:14 12° 303° (WNW) 05:41:06 ?
Uosat F 22 Oct 05:38:21 05:43:09 42° 99° (E) 05:47:54 435.120 FM
TMSAT-1 22 Oct 05:48:58 05:53:23 27° 295° (WNW) 05:57:46 436.925 FM
JAS-2 22 Oct 06:10:07 06:16:53 32° 93° (E) 06:23:41 435.800 - 435.900 CW/SSB, 435.910 FM
RS-15 22 Oct 06:12:47 06:22:19 31° 28° (NNE) 06:32:05 29.354 - 29.394 USB, Beacon 29.352 USB
OPAL 22 Oct 06:15:04 06:20:06 51° 258° (WSW) 06:25:06 ?
STRAND 1 22 Oct 06:17:23 06:20:55 19° 61° (ENE) 06:24:28 ?
AO-7 22 Oct 06:25:02 06:33:23 84° 290° (WNW) 06:41:44 29.400 - 29.500 MHz
Sapphire 22 Oct 06:57:59 07:02:33 27° 313° (NW) 07:07:09 437.095 MHz 1200 baud AX-25 AFSK
Hamsat 22 Oct 07:14:51 07:19:00 58° 100° (E) 07:23:08 145.90 MHz
Uosat F 22 Oct 07:17:38 07:21:42 25° 296° (WNW) 07:25:46 435.120 FM
PCSat 22 Oct 07:22:07 07:25:52 19° 319° (NW) 07:29:38 145.825 MHz
STRAND 1 22 Oct 07:54:36 07:59:38 59° 259° (W) 08:04:44 ?
JAS-2 22 Oct 07:54:39 08:02:08 59° 290° (WNW) 08:09:47 435.800 - 435.900 CW/SSB, 435.910 FM
Saudisat 1A 22 Oct 08:16:46 08:19:49 19° 111° (ESE) 08:22:54 436.775 MHz
AO-7 22 Oct 08:19:17 08:25:01 21° 310° (NW) 08:30:47 29.400 - 29.500 MHz
RS-15 22 Oct 08:25:26 08:36:38 81° 55° (NE) 08:48:19 29.354 - 29.394 USB, Beacon 29.352 USB
Hamsat 22 Oct 08:52:25 08:54:29 14° 297° (WNW) 08:56:33 145.90 MHz
SO-67 22 Oct 08:59:42 09:03:06 57° 285° (WNW) 09:06:29 435.3500 MHz FM
JAS-2 22 Oct 09:42:19 09:45:42 14° 309° (NW) 09:49:08 435.800 - 435.900 CW/SSB, 435.910 FM
Saudisat 1A 22 Oct 09:54:46 09:59:02 50° 309° (NW) 10:03:20 436.775 MHz
UKube-1 22 Oct 10:12:27 10:14:52 15° 91° (E) 10:17:16 145.840 MHz, 145.915 MHz
HO-68 22 Oct 10:19:33 10:26:35 53° 101° (E) 10:33:33 435.675 MHz FM
RS-15 22 Oct 10:38:56 10:47:52 29° 256° (WSW) 10:57:09 29.354 - 29.394 USB, Beacon 29.352 USB
FUNcube-1 22 Oct 10:47:21 10:49:21 13° 90° (E) 10:51:20 145.950 - 145.970 MHz USB
MaSat-1 22 Oct 10:54:07 10:56:46 59° 246° (WSW) 10:59:12 437.345 MHz
Oscar 11 22 Oct 10:55:18 10:59:21 39° 98° (E) 11:03:22 145.825 FM, Beacon 2401.500 USB
ZACube-1 22 Oct 11:36:27 11:40:36 46° 99° (E) 11:44:38 437.345 MHz
Saudisat 1A 22 Oct 11:39:27 11:39:39 10° 329° (NNW) 11:39:51 436.775 MHz
UKube-1 22 Oct 11:47:06 11:51:23 53° 288° (WNW) 11:55:37 145.840 MHz, 145.915 MHz
